Year,Month,Day,Hour,Minute,Value (Times are PST for windgust in km/hr)
2014,10,26,00,00,14.50
2014,10,26,00,01,8.10
2014,10,26,00,02,9.60
2014,10,26,00,03,9.60
2014,10,26,00,04,9.60
2014,10,26,00,05,17.70
2014,10,26,00,06,19.30
2014,10,26,00,07,8.10
2014,10,26,00,08,19.30
2014,10,26,00,09,24.20
2014,10,26,00,10,16.10
2014,10,26,00,11,16.10
2014,10,26,00,12,14.50
2014,10,26,00,13,20.90
2014,10,26,00,14,19.30
2014,10,26,00,15,27.40
2014,10,26,00,16,16.10
2014,10,26,00,17,6.40
2014,10,26,00,18,12.90
2014,10,26,00,19,16.10
2014,10,26,00,20,17.70
2014,10,26,00,21,22.50
2014,10,26,00,22,17.70
2014,10,26,00,23,11.30
2014,10,26,00,24,19.30
2014,10,26,00,25,19.30
2014,10,26,00,26,25.70
2014,10,26,00,27,11.30
2014,10,26,00,28,8.10
2014,10,26,00,29,11.30
2014,10,26,00,30,17.70
2014,10,26,00,31,11.30
2014,10,26,00,32,6.40
2014,10,26,00,33,6.40
2014,10,26,00,34,4.80
2014,10,26,00,35,9.60
2014,10,26,00,36,4.80
2014,10,26,00,37,3.20
2014,10,26,00,38,4.80
2014,10,26,00,39,4.80
2014,10,26,00,40,6.40
2014,10,26,00,41,8.10
2014,10,26,00,42,17.70
2014,10,26,00,43,22.50
2014,10,26,00,44,16.10
2014,10,26,00,45,6.40
2014,10,26,00,46,8.10
2014,10,26,00,47,11.30
2014,10,26,00,48,9.60
2014,10,26,00,49,8.10
2014,10,26,00,50,6.40
2014,10,26,00,51,9.60
2014,10,26,00,52,11.30
2014,10,26,00,53,9.60
2014,10,26,00,54,9.60
2014,10,26,00,55,6.40
2014,10,26,00,56,22.50
2014,10,26,00,57,9.60
2014,10,26,00,58,9.60
2014,10,26,00,59,11.30
2014,10,26,01,00,9.60
2014,10,26,01,01,1.60
2014,10,26,01,02,1.60
2014,10,26,01,03,4.80
2014,10,26,01,04,3.20
2014,10,26,01,05,1.60
2014,10,26,01,06,1.60
2014,10,26,01,07,1.60
2014,10,26,01,08,1.60
2014,10,26,01,09,3.20
2014,10,26,01,10,6.40
2014,10,26,01,11,17.70
2014,10,26,01,12,24.20
2014,10,26,01,13,14.50
2014,10,26,01,14,8.10
2014,10,26,01,15,6.40
2014,10,26,01,16,4.80
2014,10,26,01,17,6.40
2014,10,26,01,18,6.40
2014,10,26,01,19,9.60
2014,10,26,01,20,3.20
2014,10,26,01,21,1.60
2014,10,26,01,24,14.50
2014,10,26,01,25,14.50
2014,10,26,01,26,8.10
2014,10,26,01,27,11.30
2014,10,26,01,28,9.60
2014,10,26,01,29,6.40
2014,10,26,01,30,11.30
2014,10,26,01,31,11.30
2014,10,26,01,32,8.10
2014,10,26,01,33,9.60
2014,10,26,01,35,4.80
2014,10,26,01,36,1.60
2014,10,26,01,37,1.60
2014,10,26,01,38,1.60
2014,10,26,01,39,1.60
2014,10,26,01,41,1.60
2014,10,26,01,42,1.60
2014,10,26,01,47,1.60
2014,10,26,01,50,1.60
2014,10,26,01,51,1.60
2014,10,26,01,52,1.60
2014,10,26,01,53,1.60
2014,10,26,01,54,4.80
2014,10,26,01,55,1.60
2014,10,26,01,56,3.20
2014,10,26,01,57,1.60
2014,10,26,02,01,3.20
2014,10,26,02,02,4.80
2014,10,26,02,03,4.80
2014,10,26,02,04,4.80
2014,10,26,02,05,1.60
2014,10,26,02,08,6.40
2014,10,26,02,09,4.80
2014,10,26,02,10,3.20
2014,10,26,02,11,1.60
2014,10,26,02,13,1.60
2014,10,26,02,14,1.60
2014,10,26,02,15,3.20
2014,10,26,02,16,4.80
2014,10,26,02,17,3.20
2014,10,26,02,18,4.80
2014,10,26,02,19,8.10
2014,10,26,02,20,4.80
2014,10,26,02,21,8.10
2014,10,26,02,22,8.10
2014,10,26,02,23,6.40
2014,10,26,02,24,8.10
2014,10,26,02,25,4.80
2014,10,26,02,26,4.80
2014,10,26,02,27,3.20
2014,10,26,02,28,1.60
2014,10,26,02,30,1.60
2014,10,26,02,33,1.60
2014,10,26,02,34,1.60
2014,10,26,02,35,8.10
2014,10,26,02,36,6.40
2014,10,26,02,37,6.40
2014,10,26,02,38,9.60
2014,10,26,02,39,9.60
2014,10,26,02,40,17.70
2014,10,26,02,41,9.60
2014,10,26,02,42,6.40
2014,10,26,02,43,4.80
2014,10,26,02,44,1.60
2014,10,26,02,45,1.60
2014,10,26,02,46,3.20
2014,10,26,02,47,4.80
2014,10,26,02,48,4.80
2014,10,26,02,49,4.80
2014,10,26,02,50,4.80
2014,10,26,02,51,4.80
2014,10,26,02,52,3.20
2014,10,26,02,53,3.20
2014,10,26,02,54,1.60
2014,10,26,02,55,1.60
2014,10,26,02,56,1.60
2014,10,26,02,57,3.20
2014,10,26,02,58,6.40
2014,10,26,02,59,4.80
2014,10,26,03,00,6.40
2014,10,26,03,01,6.40
2014,10,26,03,02,8.10
2014,10,26,03,06,3.20
2014,10,26,03,07,9.60
2014,10,26,03,08,6.40
2014,10,26,03,09,1.60
2014,10,26,03,10,3.20
2014,10,26,03,11,6.40
2014,10,26,03,12,6.40
2014,10,26,03,13,6.40
2014,10,26,03,14,4.80
2014,10,26,03,15,6.40
2014,10,26,03,16,4.80
2014,10,26,03,17,1.60
2014,10,26,03,18,1.60
2014,10,26,03,19,4.80
2014,10,26,03,20,4.80
2014,10,26,03,21,3.20
2014,10,26,03,22,1.60
2014,10,26,03,23,6.40
2014,10,26,03,24,11.30
2014,10,26,03,25,8.10
2014,10,26,03,26,3.20
2014,10,26,03,27,6.40
2014,10,26,03,28,3.20
2014,10,26,03,29,4.80
2014,10,26,03,30,3.20
2014,10,26,03,31,6.40
2014,10,26,03,32,4.80
2014,10,26,03,33,3.20
2014,10,26,03,34,3.20
2014,10,26,03,35,1.60
2014,10,26,03,36,1.60
2014,10,26,03,37,1.60
2014,10,26,03,38,1.60
2014,10,26,03,43,1.60
2014,10,26,03,44,1.60
2014,10,26,03,45,1.60
2014,10,26,03,46,1.60
2014,10,26,03,51,1.60
2014,10,26,03,55,1.60
2014,10,26,03,58,1.60
2014,10,26,03,59,3.20
2014,10,26,04,00,4.80
2014,10,26,04,01,4.80
2014,10,26,04,02,6.40
2014,10,26,04,03,6.40
2014,10,26,04,04,4.80
2014,10,26,04,05,4.80
2014,10,26,04,06,3.20
2014,10,26,04,07,3.20
2014,10,26,04,08,1.60
2014,10,26,04,09,1.60
2014,10,26,04,10,1.60
2014,10,26,04,11,1.60
2014,10,26,04,13,1.60
2014,10,26,04,14,6.40
2014,10,26,04,15,8.10
2014,10,26,04,16,6.40
2014,10,26,04,17,4.80
2014,10,26,04,18,1.60
2014,10,26,04,20,3.20
2014,10,26,04,21,3.20
2014,10,26,04,22,1.60
2014,10,26,04,23,1.60
2014,10,26,04,29,4.80
2014,10,26,04,30,4.80
2014,10,26,04,31,3.20
2014,10,26,04,32,3.20
2014,10,26,04,33,3.20
2014,10,26,04,34,1.60
2014,10,26,04,36,1.60
2014,10,26,04,37,1.60
2014,10,26,04,38,3.20
2014,10,26,04,39,3.20
2014,10,26,04,40,1.60
2014,10,26,04,41,6.40
2014,10,26,04,42,8.10
2014,10,26,04,43,6.40
2014,10,26,04,44,4.80
2014,10,26,04,45,1.60
2014,10,26,04,46,3.20
2014,10,26,04,47,4.80
2014,10,26,04,48,3.20
2014,10,26,04,49,3.20
2014,10,26,04,50,4.80
2014,10,26,04,51,4.80
2014,10,26,04,52,4.80
2014,10,26,04,53,3.20
2014,10,26,04,54,1.60
2014,10,26,04,57,3.20
2014,10,26,04,58,3.20
2014,10,26,04,59,1.60
2014,10,26,05,00,1.60
2014,10,26,05,07,4.80
2014,10,26,05,08,4.80
2014,10,26,05,09,4.80
2014,10,26,05,10,3.20
2014,10,26,05,16,4.80
2014,10,26,05,17,3.20
2014,10,26,05,18,3.20
2014,10,26,05,19,3.20
2014,10,26,05,20,1.60
2014,10,26,05,21,3.20
2014,10,26,05,22,1.60
2014,10,26,05,28,3.20
2014,10,26,05,29,3.20
2014,10,26,05,30,3.20
2014,10,26,05,31,1.60
2014,10,26,05,32,1.60
2014,10,26,05,33,4.80
2014,10,26,05,34,3.20
2014,10,26,05,35,1.60
2014,10,26,05,36,3.20
2014,10,26,05,37,4.80
2014,10,26,05,38,3.20
2014,10,26,05,39,3.20
2014,10,26,05,40,1.60
2014,10,26,05,41,3.20
2014,10,26,05,42,3.20
2014,10,26,05,43,3.20
2014,10,26,05,44,3.20
2014,10,26,05,46,1.60
2014,10,26,05,47,1.60
2014,10,26,05,48,1.60
2014,10,26,05,49,1.60
2014,10,26,05,50,1.60
2014,10,26,05,51,1.60
2014,10,26,05,53,3.20
2014,10,26,05,54,4.80
2014,10,26,05,55,3.20
2014,10,26,05,56,3.20
2014,10,26,05,57,3.20
2014,10,26,05,58,1.60
2014,10,26,05,59,1.60
2014,10,26,06,00,1.60
2014,10,26,06,01,1.60
2014,10,26,06,02,1.60
2014,10,26,06,03,1.60
2014,10,26,06,07,3.20
2014,10,26,06,08,1.60
2014,10,26,06,09,3.20
2014,10,26,06,10,3.20
2014,10,26,06,13,1.60
2014,10,26,06,14,1.60
2014,10,26,06,16,1.60
2014,10,26,06,17,3.20
2014,10,26,06,18,1.60
2014,10,26,06,19,3.20
2014,10,26,06,20,1.60
2014,10,26,06,21,1.60
2014,10,26,06,23,1.60
2014,10,26,06,24,1.60
2014,10,26,06,25,1.60
2014,10,26,06,26,1.60
2014,10,26,06,30,1.60
2014,10,26,06,31,1.60
2014,10,26,06,32,3.20
2014,10,26,06,33,6.40
2014,10,26,06,34,4.80
2014,10,26,06,35,6.40
2014,10,26,06,36,4.80
2014,10,26,06,37,4.80
2014,10,26,06,38,4.80
2014,10,26,06,39,4.80
2014,10,26,06,40,3.20
2014,10,26,06,41,1.60
2014,10,26,06,42,3.20
2014,10,26,06,43,3.20
2014,10,26,06,44,3.20
2014,10,26,06,45,4.80
2014,10,26,06,46,4.80
2014,10,26,06,47,4.80
2014,10,26,06,48,1.60
2014,10,26,06,51,1.60
2014,10,26,06,52,3.20
2014,10,26,06,53,3.20
2014,10,26,06,54,1.60
2014,10,26,06,55,1.60
2014,10,26,06,56,4.80
2014,10,26,06,57,4.80
2014,10,26,06,58,4.80
2014,10,26,06,59,4.80
2014,10,26,07,00,4.80
2014,10,26,07,01,3.20
2014,10,26,07,02,3.20
2014,10,26,07,03,3.20
2014,10,26,07,04,4.80
2014,10,26,07,05,3.20
2014,10,26,07,06,3.20
2014,10,26,07,07,3.20
2014,10,26,07,08,3.20
2014,10,26,07,09,1.60
2014,10,26,07,11,1.60
2014,10,26,07,13,1.60
2014,10,26,07,14,1.60
2014,10,26,07,15,1.60
2014,10,26,07,16,3.20
2014,10,26,07,17,1.60
2014,10,26,07,20,1.60
2014,10,26,07,21,3.20
2014,10,26,07,22,1.60
2014,10,26,07,23,1.60
2014,10,26,07,24,1.60
2014,10,26,07,25,3.20
2014,10,26,07,26,3.20
2014,10,26,07,27,1.60
2014,10,26,07,28,1.60
2014,10,26,07,30,1.60
2014,10,26,07,31,3.20
2014,10,26,07,32,6.40
2014,10,26,07,33,6.40
2014,10,26,07,34,4.80
2014,10,26,07,35,4.80
2014,10,26,07,36,3.20
2014,10,26,07,37,3.20
2014,10,26,07,38,1.60
2014,10,26,07,39,1.60
2014,10,26,07,40,1.60
2014,10,26,07,41,1.60
2014,10,26,07,42,1.60
2014,10,26,07,43,1.60
2014,10,26,07,44,1.60
2014,10,26,07,45,1.60
2014,10,26,07,46,4.80
2014,10,26,07,47,4.80
2014,10,26,07,48,3.20
2014,10,26,07,49,1.60
2014,10,26,07,50,1.60
2014,10,26,07,51,1.60
2014,10,26,07,56,1.60
2014,10,26,07,57,1.60
2014,10,26,08,01,1.60
2014,10,26,08,02,1.60
2014,10,26,08,03,1.60
2014,10,26,08,04,1.60
2014,10,26,08,05,3.20
2014,10,26,08,06,3.20
2014,10,26,08,07,3.20
2014,10,26,08,08,4.80
2014,10,26,08,09,4.80
2014,10,26,08,10,4.80
2014,10,26,08,11,4.80
2014,10,26,08,12,4.80
2014,10,26,08,13,4.80
2014,10,26,08,14,4.80
2014,10,26,08,15,4.80
2014,10,26,08,16,4.80
2014,10,26,08,17,4.80
2014,10,26,08,18,4.80
2014,10,26,08,19,4.80
2014,10,26,08,20,3.20
2014,10,26,08,21,3.20
2014,10,26,08,22,3.20
2014,10,26,08,23,3.20
2014,10,26,08,24,3.20
2014,10,26,08,25,3.20
2014,10,26,08,26,4.80
2014,10,26,08,27,3.20
2014,10,26,08,28,3.20
2014,10,26,08,29,3.20
2014,10,26,08,30,1.60
2014,10,26,08,31,1.60
2014,10,26,08,32,3.20
2014,10,26,08,33,3.20
2014,10,26,08,34,1.60
2014,10,26,08,35,1.60
2014,10,26,08,36,1.60
2014,10,26,08,37,1.60
2014,10,26,08,38,1.60
2014,10,26,08,39,1.60
2014,10,26,08,40,3.20
2014,10,26,08,41,1.60
2014,10,26,08,42,1.60
2014,10,26,08,43,1.60
2014,10,26,08,48,1.60
2014,10,26,08,52,1.60
2014,10,26,08,53,1.60
2014,10,26,08,55,1.60
2014,10,26,08,56,3.20
2014,10,26,08,57,3.20
2014,10,26,08,58,1.60
2014,10,26,08,59,4.80
2014,10,26,09,00,4.80
2014,10,26,09,01,3.20
2014,10,26,09,02,4.80
2014,10,26,09,03,3.20
2014,10,26,09,04,4.80
2014,10,26,09,05,4.80
2014,10,26,09,06,8.10
2014,10,26,09,07,6.40
2014,10,26,09,08,1.60
2014,10,26,09,09,1.60
2014,10,26,09,11,4.80
2014,10,26,09,12,4.80
2014,10,26,09,13,3.20
2014,10,26,09,14,3.20
2014,10,26,09,15,1.60
2014,10,26,09,17,3.20
2014,10,26,09,18,3.20
2014,10,26,09,19,3.20
2014,10,26,09,20,1.60
2014,10,26,09,21,3.20
2014,10,26,09,22,3.20
2014,10,26,09,23,1.60
2014,10,26,09,24,1.60
2014,10,26,09,25,1.60
2014,10,26,09,26,3.20
2014,10,26,09,27,4.80
2014,10,26,09,28,6.40
2014,10,26,09,29,4.80
2014,10,26,09,30,4.80
2014,10,26,09,31,3.20
2014,10,26,09,32,6.40
2014,10,26,09,33,6.40
2014,10,26,09,34,6.40
2014,10,26,09,35,9.60
2014,10,26,09,36,8.10
2014,10,26,09,37,8.10
2014,10,26,09,38,8.10
2014,10,26,09,39,6.40
2014,10,26,09,40,8.10
2014,10,26,09,41,8.10
2014,10,26,09,42,8.10
2014,10,26,09,43,6.40
2014,10,26,09,44,6.40
2014,10,26,09,45,6.40
2014,10,26,09,46,6.40
2014,10,26,09,47,6.40
2014,10,26,09,48,6.40
2014,10,26,09,49,6.40
2014,10,26,09,50,4.80
2014,10,26,09,51,4.80
2014,10,26,09,52,3.20
2014,10,26,09,53,3.20
2014,10,26,09,54,3.20
2014,10,26,09,55,1.60
2014,10,26,09,56,3.20
2014,10,26,09,57,3.20
2014,10,26,09,58,1.60
2014,10,26,09,59,1.60
2014,10,26,10,00,3.20
2014,10,26,10,01,1.60
2014,10,26,10,02,3.20
2014,10,26,10,03,3.20
2014,10,26,10,04,3.20
2014,10,26,10,05,1.60
2014,10,26,10,06,1.60
2014,10,26,10,08,3.20
2014,10,26,10,16,3.20
2014,10,26,10,17,3.20
2014,10,26,10,18,1.60
2014,10,26,10,20,1.60
2014,10,26,10,21,3.20
2014,10,26,10,22,1.60
2014,10,26,10,23,3.20
2014,10,26,10,24,3.20
2014,10,26,10,25,3.20
2014,10,26,10,26,3.20
2014,10,26,10,27,3.20
2014,10,26,10,28,3.20
2014,10,26,10,29,3.20
2014,10,26,10,30,3.20
2014,10,26,10,31,4.80
2014,10,26,10,32,3.20
2014,10,26,10,33,1.60
2014,10,26,10,34,1.60
2014,10,26,10,38,3.20
2014,10,26,10,39,4.80
2014,10,26,10,40,1.60
2014,10,26,10,41,1.60
2014,10,26,10,43,3.20
2014,10,26,10,44,3.20
2014,10,26,10,45,3.20
2014,10,26,10,46,3.20
2014,10,26,10,47,1.60
2014,10,26,10,50,3.20
2014,10,26,10,51,3.20
2014,10,26,10,52,1.60
2014,10,26,10,53,3.20
2014,10,26,10,54,3.20
2014,10,26,10,55,3.20
2014,10,26,10,56,1.60
2014,10,26,10,57,1.60
2014,10,26,10,58,3.20
2014,10,26,10,59,3.20
2014,10,26,11,00,3.20
2014,10,26,11,01,1.60
2014,10,26,11,03,1.60
2014,10,26,11,04,1.60
2014,10,26,11,08,3.20
2014,10,26,11,09,4.80
2014,10,26,11,10,1.60
2014,10,26,11,11,1.60
2014,10,26,11,12,1.60
2014,10,26,11,13,1.60
2014,10,26,11,14,1.60
2014,10,26,11,19,1.60
2014,10,26,11,22,1.60
2014,10,26,11,23,1.60
2014,10,26,11,24,1.60
2014,10,26,11,27,1.60
2014,10,26,11,30,3.20
2014,10,26,11,31,3.20
2014,10,26,11,32,4.80
2014,10,26,11,33,3.20
2014,10,26,11,34,3.20
2014,10,26,11,35,3.20
2014,10,26,11,36,3.20
2014,10,26,11,37,3.20
2014,10,26,11,38,4.80
2014,10,26,11,39,3.20
2014,10,26,11,40,3.20
2014,10,26,11,41,1.60
2014,10,26,11,42,1.60
2014,10,26,11,43,1.60
2014,10,26,11,44,1.60
2014,10,26,11,45,1.60
2014,10,26,11,48,1.60
2014,10,26,12,06,1.60
2014,10,26,12,07,1.60
2014,10,26,12,08,1.60
2014,10,26,12,09,1.60
2014,10,26,12,10,3.20
2014,10,26,12,11,1.60
2014,10,26,12,12,1.60
2014,10,26,12,14,1.60
2014,10,26,12,15,1.60
2014,10,26,12,16,1.60
2014,10,26,12,20,1.60
2014,10,26,12,21,3.20
2014,10,26,12,22,1.60
2014,10,26,12,23,3.20
2014,10,26,12,24,6.40
2014,10,26,12,25,6.40
2014,10,26,12,26,4.80
2014,10,26,12,27,3.20
2014,10,26,12,28,3.20
2014,10,26,12,29,3.20
2014,10,26,12,30,3.20
2014,10,26,12,31,4.80
2014,10,26,12,32,4.80
2014,10,26,12,33,3.20
2014,10,26,12,34,4.80
2014,10,26,12,35,6.40
2014,10,26,12,36,4.80
2014,10,26,12,37,3.20
2014,10,26,12,38,3.20
2014,10,26,12,39,4.80
2014,10,26,12,40,4.80
2014,10,26,12,41,6.40
2014,10,26,12,42,4.80
2014,10,26,12,43,9.60
2014,10,26,12,44,6.40
2014,10,26,12,45,1.60
2014,10,26,12,46,1.60
2014,10,26,12,47,1.60
2014,10,26,12,48,3.20
2014,10,26,12,49,3.20
2014,10,26,12,50,3.20
2014,10,26,12,51,1.60
2014,10,26,12,52,3.20
2014,10,26,12,53,3.20
2014,10,26,12,54,3.20
2014,10,26,12,55,4.80
2014,10,26,12,56,3.20
2014,10,26,12,57,3.20
2014,10,26,12,58,6.40
2014,10,26,12,59,4.80
2014,10,26,13,00,6.40
2014,10,26,13,02,1.60
2014,10,26,13,03,1.60
2014,10,26,13,09,1.60
2014,10,26,13,14,1.60
2014,10,26,13,15,1.60
2014,10,26,13,18,4.80
2014,10,26,13,19,6.40
2014,10,26,13,20,4.80
2014,10,26,13,21,1.60
2014,10,26,13,22,4.80
2014,10,26,13,23,6.40
2014,10,26,13,24,8.10
2014,10,26,13,25,6.40
2014,10,26,13,26,6.40
2014,10,26,13,27,4.80
2014,10,26,13,28,4.80
2014,10,26,13,29,4.80
2014,10,26,13,30,8.10
2014,10,26,13,31,8.10
2014,10,26,13,32,6.40
2014,10,26,13,33,4.80
2014,10,26,13,34,4.80
2014,10,26,13,35,6.40
2014,10,26,13,36,4.80
2014,10,26,13,37,6.40
2014,10,26,13,38,9.60
2014,10,26,13,39,8.10
2014,10,26,13,40,8.10
2014,10,26,13,41,6.40
2014,10,26,13,42,4.80
2014,10,26,13,43,6.40
2014,10,26,13,44,4.80
2014,10,26,13,45,4.80
2014,10,26,13,46,4.80
2014,10,26,13,47,6.40
2014,10,26,13,48,4.80
2014,10,26,13,49,4.80
2014,10,26,13,50,3.20
2014,10,26,13,51,3.20
2014,10,26,13,52,3.20
2014,10,26,13,53,1.60
2014,10,26,13,55,1.60
2014,10,26,13,57,1.60
2014,10,26,13,58,1.60
2014,10,26,13,59,1.60
2014,10,26,14,00,3.20
2014,10,26,14,01,3.20
2014,10,26,14,02,4.80
2014,10,26,14,03,4.80
2014,10,26,14,04,6.40
2014,10,26,14,05,4.80
2014,10,26,14,06,4.80
2014,10,26,14,07,3.20
2014,10,26,14,08,4.80
2014,10,26,14,09,3.20
2014,10,26,14,10,3.20
2014,10,26,14,11,3.20
2014,10,26,14,12,3.20
2014,10,26,14,13,4.80
2014,10,26,14,14,4.80
2014,10,26,14,15,4.80
2014,10,26,14,16,3.20
2014,10,26,14,17,3.20
2014,10,26,14,18,3.20
2014,10,26,14,19,3.20
2014,10,26,14,20,6.40
2014,10,26,14,21,4.80
2014,10,26,14,22,3.20
2014,10,26,14,23,3.20
2014,10,26,14,24,3.20
2014,10,26,14,25,3.20
2014,10,26,14,26,1.60
2014,10,26,14,32,1.60
2014,10,26,14,34,1.60
2014,10,26,14,35,1.60
2014,10,26,14,42,1.60
2014,10,26,14,44,1.60
2014,10,26,14,45,1.60
2014,10,26,14,47,1.60
2014,10,26,14,48,1.60
2014,10,26,14,49,1.60
2014,10,26,14,50,1.60
2014,10,26,14,51,1.60
2014,10,26,14,52,4.80
2014,10,26,14,53,4.80
2014,10,26,14,54,4.80
2014,10,26,14,55,4.80
2014,10,26,14,56,4.80
2014,10,26,14,57,4.80
2014,10,26,14,58,4.80
2014,10,26,14,59,4.80
2014,10,26,15,00,4.80
2014,10,26,15,01,3.20
2014,10,26,15,02,3.20
2014,10,26,15,03,3.20
2014,10,26,15,04,3.20
2014,10,26,15,05,3.20
2014,10,26,15,06,1.60
2014,10,26,15,07,3.20
2014,10,26,15,08,3.20
2014,10,26,15,09,4.80
2014,10,26,15,10,4.80
2014,10,26,15,11,4.80
2014,10,26,15,12,4.80
2014,10,26,15,13,4.80
2014,10,26,15,14,3.20
2014,10,26,15,15,3.20
2014,10,26,15,16,3.20
2014,10,26,15,17,3.20
2014,10,26,15,18,1.60
2014,10,26,15,19,1.60
2014,10,26,15,20,1.60
2014,10,26,15,21,3.20
2014,10,26,15,22,1.60
2014,10,26,15,24,1.60
2014,10,26,15,25,1.60
2014,10,26,15,26,3.20
2014,10,26,15,27,3.20
2014,10,26,15,28,3.20
2014,10,26,15,29,3.20
2014,10,26,15,30,1.60
2014,10,26,15,31,3.20
2014,10,26,15,32,3.20
2014,10,26,15,33,3.20
2014,10,26,15,34,3.20
2014,10,26,15,43,1.60
2014,10,26,15,48,3.20
2014,10,26,15,49,3.20
2014,10,26,15,50,3.20
2014,10,26,15,51,3.20
2014,10,26,15,52,4.80
2014,10,26,15,53,3.20
2014,10,26,15,54,4.80
2014,10,26,15,55,4.80
2014,10,26,15,56,3.20
2014,10,26,15,57,3.20
2014,10,26,15,58,4.80
2014,10,26,15,59,3.20
2014,10,26,16,00,6.40
2014,10,26,16,01,6.40
2014,10,26,16,02,6.40
2014,10,26,16,03,6.40
2014,10,26,16,04,8.10
2014,10,26,16,05,6.40
2014,10,26,16,06,6.40
2014,10,26,16,07,4.80
2014,10,26,16,08,6.40
2014,10,26,16,09,4.80
2014,10,26,16,10,1.60
2014,10,26,16,11,1.60
2014,10,26,16,12,1.60
2014,10,26,16,30,3.20
2014,10,26,16,31,4.80
2014,10,26,16,32,4.80
2014,10,26,16,33,4.80
2014,10,26,16,34,4.80
2014,10,26,16,35,3.20
2014,10,26,16,36,4.80
2014,10,26,16,37,4.80
2014,10,26,16,38,3.20
2014,10,26,16,39,3.20
2014,10,26,16,40,1.60
2014,10,26,16,41,1.60
2014,10,26,16,42,4.80
2014,10,26,16,43,8.10
2014,10,26,16,44,9.60
2014,10,26,16,45,11.30
2014,10,26,16,46,6.40
2014,10,26,16,47,9.60
2014,10,26,16,48,9.60
2014,10,26,16,49,8.10
2014,10,26,16,50,6.40
2014,10,26,16,51,4.80
2014,10,26,16,52,3.20
2014,10,26,16,55,1.60
2014,10,26,16,57,3.20
2014,10,26,16,58,4.80
2014,10,26,16,59,4.80
2014,10,26,17,00,6.40
2014,10,26,17,01,6.40
2014,10,26,17,02,8.10
2014,10,26,17,03,8.10
2014,10,26,17,04,4.80
2014,10,26,17,05,3.20
2014,10,26,17,06,4.80
2014,10,26,17,07,3.20
2014,10,26,17,08,3.20
2014,10,26,17,09,4.80
2014,10,26,17,10,3.20
2014,10,26,17,11,3.20
2014,10,26,17,12,4.80
2014,10,26,17,13,4.80
2014,10,26,17,14,3.20
2014,10,26,17,15,3.20
2014,10,26,17,16,4.80
2014,10,26,17,17,3.20
2014,10,26,17,18,3.20
2014,10,26,17,19,4.80
2014,10,26,17,20,4.80
2014,10,26,17,21,4.80
2014,10,26,17,22,4.80
2014,10,26,17,23,3.20
2014,10,26,17,24,3.20
2014,10,26,17,25,1.60
2014,10,26,17,26,1.60
2014,10,26,17,27,3.20
2014,10,26,17,28,1.60
2014,10,26,17,29,3.20
2014,10,26,17,30,3.20
2014,10,26,17,31,3.20
2014,10,26,17,32,3.20
2014,10,26,17,33,3.20
2014,10,26,17,34,3.20
2014,10,26,17,35,3.20
2014,10,26,17,36,3.20
2014,10,26,17,37,3.20
2014,10,26,17,38,3.20
2014,10,26,17,39,3.20
2014,10,26,17,40,3.20
2014,10,26,17,41,3.20
2014,10,26,17,42,3.20
2014,10,26,17,43,3.20
2014,10,26,17,44,4.80
2014,10,26,17,45,4.80
2014,10,26,17,46,4.80
2014,10,26,17,47,4.80
2014,10,26,17,48,4.80
2014,10,26,17,49,3.20
2014,10,26,17,50,3.20
2014,10,26,17,51,3.20
2014,10,26,17,52,3.20
2014,10,26,17,53,3.20
2014,10,26,17,54,3.20
2014,10,26,17,55,4.80
2014,10,26,17,56,3.20
2014,10,26,17,57,1.60
2014,10,26,17,58,1.60
2014,10,26,18,03,1.60
2014,10,26,18,04,1.60
2014,10,26,18,05,1.60
2014,10,26,18,06,3.20
2014,10,26,18,07,3.20
2014,10,26,18,08,3.20
2014,10,26,18,09,1.60
2014,10,26,18,10,1.60
2014,10,26,18,11,1.60
2014,10,26,18,15,1.60
2014,10,26,18,16,1.60
2014,10,26,18,17,1.60
2014,10,26,18,18,1.60
2014,10,26,18,19,1.60
2014,10,26,18,20,3.20
2014,10,26,18,21,1.60
2014,10,26,18,22,3.20
2014,10,26,18,23,3.20
2014,10,26,18,24,3.20
2014,10,26,18,25,1.60
2014,10,26,18,26,1.60
2014,10,26,18,27,3.20
2014,10,26,18,28,1.60
2014,10,26,18,29,3.20
2014,10,26,18,30,3.20
2014,10,26,18,31,3.20
2014,10,26,18,32,1.60
2014,10,26,18,33,1.60
2014,10,26,18,34,1.60
2014,10,26,18,35,1.60
2014,10,26,18,36,1.60
2014,10,26,18,37,1.60
2014,10,26,18,38,1.60
2014,10,26,18,42,1.60
2014,10,26,18,45,1.60
2014,10,26,18,46,3.20
2014,10,26,18,47,3.20
2014,10,26,18,48,3.20
2014,10,26,18,49,3.20
2014,10,26,18,50,3.20
2014,10,26,18,51,3.20
2014,10,26,18,52,3.20
2014,10,26,18,53,3.20
2014,10,26,18,54,3.20
2014,10,26,18,55,3.20
2014,10,26,18,59,1.60
2014,10,26,19,00,1.60
2014,10,26,19,01,1.60
2014,10,26,19,02,1.60
2014,10,26,19,03,3.20
2014,10,26,19,04,4.80
2014,10,26,19,05,3.20
2014,10,26,19,06,3.20
2014,10,26,19,07,1.60
2014,10,26,19,08,3.20
2014,10,26,19,09,3.20
2014,10,26,19,10,3.20
2014,10,26,19,11,3.20
2014,10,26,19,12,1.60
2014,10,26,19,13,1.60
2014,10,26,19,17,1.60
2014,10,26,19,18,3.20
2014,10,26,19,19,3.20
2014,10,26,19,20,3.20
2014,10,26,19,21,3.20
2014,10,26,19,22,3.20
2014,10,26,19,23,3.20
2014,10,26,19,24,3.20
2014,10,26,19,25,3.20
2014,10,26,19,26,3.20
2014,10,26,19,27,3.20
2014,10,26,19,28,3.20
2014,10,26,19,29,1.60
2014,10,26,19,30,1.60
2014,10,26,19,31,1.60
2014,10,26,19,32,3.20
2014,10,26,19,33,3.20
2014,10,26,19,34,3.20
2014,10,26,19,35,4.80
2014,10,26,19,36,3.20
2014,10,26,19,37,1.60
2014,10,26,19,38,1.60
2014,10,26,19,39,1.60
2014,10,26,19,40,1.60
2014,10,26,19,44,3.20
2014,10,26,19,45,3.20
2014,10,26,19,46,3.20
2014,10,26,19,47,4.80
2014,10,26,19,48,4.80
2014,10,26,19,49,4.80
2014,10,26,19,50,4.80
2014,10,26,19,51,3.20
2014,10,26,19,52,3.20
2014,10,26,19,53,3.20
2014,10,26,19,54,3.20
2014,10,26,19,55,1.60
2014,10,26,19,56,3.20
2014,10,26,19,57,3.20
2014,10,26,19,58,3.20
2014,10,26,19,59,3.20
2014,10,26,20,00,3.20
2014,10,26,20,01,3.20
2014,10,26,20,02,4.80
2014,10,26,20,03,4.80
2014,10,26,20,04,4.80
2014,10,26,20,05,3.20
2014,10,26,20,06,3.20
2014,10,26,20,07,1.60
2014,10,26,20,08,1.60
2014,10,26,20,09,3.20
2014,10,26,20,10,1.60
2014,10,26,20,15,4.80
2014,10,26,20,16,4.80
2014,10,26,20,17,4.80
2014,10,26,20,18,3.20
2014,10,26,20,19,3.20
2014,10,26,20,20,3.20
2014,10,26,20,21,4.80
2014,10,26,20,22,3.20
2014,10,26,20,23,3.20
2014,10,26,20,24,3.20
2014,10,26,20,25,4.80
2014,10,26,20,26,3.20
2014,10,26,20,27,3.20
2014,10,26,20,28,3.20
2014,10,26,20,29,1.60
2014,10,26,20,30,1.60
2014,10,26,20,31,1.60
2014,10,26,20,33,3.20
2014,10,26,20,34,3.20
2014,10,26,20,36,3.20
2014,10,26,20,37,1.60
2014,10,26,20,43,4.80
2014,10,26,20,44,3.20
2014,10,26,20,45,3.20
2014,10,26,20,46,3.20
2014,10,26,20,47,3.20
2014,10,26,20,48,3.20
2014,10,26,20,49,4.80
2014,10,26,20,50,6.40
2014,10,26,20,51,8.10
2014,10,26,20,52,4.80
2014,10,26,20,53,4.80
2014,10,26,20,54,4.80
2014,10,26,20,55,4.80
2014,10,26,20,56,4.80
2014,10,26,20,57,1.60
2014,10,26,20,58,1.60
2014,10,26,20,59,1.60
2014,10,26,21,00,3.20
2014,10,26,21,01,3.20
2014,10,26,21,02,3.20
2014,10,26,21,03,1.60
2014,10,26,21,04,1.60
2014,10,26,21,05,1.60
2014,10,26,21,06,1.60
2014,10,26,21,07,1.60
2014,10,26,21,08,3.20
2014,10,26,21,09,1.60
2014,10,26,21,10,1.60
2014,10,26,21,11,1.60
2014,10,26,21,12,1.60
2014,10,26,21,13,1.60
2014,10,26,21,14,3.20
2014,10,26,21,15,1.60
2014,10,26,21,16,1.60
2014,10,26,21,17,1.60
2014,10,26,21,18,1.60
2014,10,26,21,19,6.40
2014,10,26,21,20,8.10
2014,10,26,21,21,6.40
2014,10,26,21,22,8.10
2014,10,26,21,23,8.10
2014,10,26,21,24,8.10
2014,10,26,21,25,4.80
2014,10,26,21,26,1.60
2014,10,26,21,30,1.60
2014,10,26,21,31,1.60
2014,10,26,21,33,8.10
2014,10,26,21,34,6.40
2014,10,26,21,35,4.80
2014,10,26,21,36,1.60
2014,10,26,21,37,1.60
2014,10,26,21,38,6.40
2014,10,26,21,39,8.10
2014,10,26,21,40,8.10
2014,10,26,21,41,8.10
2014,10,26,21,42,8.10
2014,10,26,21,43,8.10
2014,10,26,21,44,9.60
2014,10,26,21,45,11.30
2014,10,26,21,46,8.10
2014,10,26,21,47,4.80
2014,10,26,21,48,4.80
2014,10,26,21,49,4.80
2014,10,26,21,50,3.20
2014,10,26,21,51,4.80
2014,10,26,21,52,4.80
2014,10,26,21,53,3.20
2014,10,26,21,54,3.20
2014,10,26,21,55,3.20
2014,10,26,21,56,3.20
2014,10,26,21,57,3.20
2014,10,26,21,58,3.20
2014,10,26,21,59,3.20
2014,10,26,22,00,1.60
2014,10,26,22,01,1.60
2014,10,26,22,02,1.60
2014,10,26,22,04,1.60
2014,10,26,22,05,3.20
2014,10,26,22,06,3.20
2014,10,26,22,09,3.20
2014,10,26,22,10,3.20
2014,10,26,22,11,3.20
2014,10,26,22,12,3.20
2014,10,26,22,13,1.60